Date,TemperatureHighF,TemperatureAvgF,TemperatureLowF,DewpointHighF,DewpointAvgF,DewpointLowF,HumidityHigh,HumidityAvg,HumidityLow,PressureMaxIn,PressureMinIn,WindSpeedMaxMPH,WindSpeedAvgMPH,GustSpeedMaxMPH,PrecipitationSumIn
2013-6-12,99,84,74,78,71,63,100,70,32,0.00,40.00,0,-999,0,0.00
2013-6-13,102,82,71,79,70,62,100,71,32,0.00,40.00,0,-999,0,0.00
2013-6-14,93,80,72,78,72,67,100,78,44,0.00,40.00,0,-999,0,0.00
2013-6-15,94,83,75,78,72,65,100,74,39,0.00,40.00,0,-999,0,0.00
2013-6-16,101,86,73,77,70,63,100,64,31,0.00,40.00,0,-999,0,0.00
2013-6-17,102,87,75,76,70,64,100,62,30,0.00,40.00,0,-999,0,0.00
2013-6-18,91,78,69,78,66,-100,100,81,53,0.00,40.00,0,-999,0,0.43
2013-6-19,100,85,74,78,71,65,100,68,34,0.00,40.00,0,-999,0,0.02
2013-6-20,97,81,74,74,71,65,94,75,35,0.00,40.00,0,-999,0,0.00
2013-6-22,96,90,83,72,68,65,69,52,36,0.00,40.00,0,-999,0,0.00
2013-8-14,96,80,73,77,71,64,100,77,39,0.00,40.00,0,-999,0,0.87
2013-8-15,91,76,69,80,70,-100,100,91,56,0.00,40.00,0,-999,0,0.51
2013-8-16,90,76,67,75,63,-100,100,85,44,0.00,40.00,0,-999,0,0.02
2013-8-17,92,79,68,73,67,58,100,71,35,0.00,40.00,0,-999,0,0.01
2013-8-18,94,79,64,65,52,-100,100,59,31,0.00,40.00,0,-999,0,0.00
2013-8-19,96,80,66,71,61,-100,100,64,32,0.00,40.00,0,-999,0,0.00
2013-8-20,96,83,67,71,47,-100,100,58,27,0.00,40.00,0,-999,0,0.00
2013-8-21,95,81,71,77,72,65,100,77,38,0.00,40.00,0,-999,0,0.01
2013-8-22,99,84,70,78,48,-100,100,71,34,0.00,40.00,0,-999,0,0.01
2013-8-23,100,85,72,76,66,-100,100,65,32,0.00,40.00,0,-999,0,0.00
2013-8-24,100,84,70,74,55,-100,100,65,31,0.00,40.00,0,-999,0,0.00
2013-8-25,95,83,71,79,69,64,100,68,38,0.00,40.00,0,-999,0,0.00
2013-8-26,92,80,71,77,71,66,100,76,45,0.00,40.00,0,-999,0,0.00
2013-8-27,77,74,70,77,74,70,100,100,100,0.00,40.00,0,-999,0,0.61
2013-8-28,95,89,77,74,69,66,91,54,38,0.00,40.00,0,-999,0,0.00
2013-8-29,99,84,70,78,58,-100,100,69,29,0.00,40.00,0,-999,0,0.00
2013-8-30,103,85,70,73,57,-100,100,62,27,0.00,40.00,0,-999,0,0.00
2013-9-11,96,82,72,77,68,60,100,69,32,0.00,40.00,0,-999,0,0.00
2013-9-12,97,82,68,76,65,58,100,63,28,0.00,40.00,0,-999,0,0.00
2013-9-13,99,82,66,73,64,57,100,61,25,0.00,40.00,0,-999,0,0.00
2013-9-14,100,82,67,68,64,60,97,59,28,0.00,40.00,0,-999,0,0.00
2013-9-15,93,82,70,74,68,65,100,67,41,0.00,40.00,0,-999,0,0.00
2013-9-16,93,78,69,77,70,64,100,80,42,0.00,40.00,0,-999,0,0.64
2013-9-17,91,78,72,81,74,72,100,88,56,0.00,40.00,0,-999,0,0.65
2013-10-21,74,64,54,68,60,53,100,89,66,0.00,40.00,0,-999,0,0.00
2013-10-22,75,60,48,56,41,-100,100,70,27,0.00,40.00,0,-999,0,0.00
2013-10-23,83,60,44,50,19,-100,100,74,24,0.00,40.00,0,-999,0,0.00
2013-10-24,83,62,45,55,15,-100,100,71,26,0.00,40.00,0,-999,0,0.00
2013-10-25,78,63,49,63,50,-100,100,82,51,0.00,40.00,0,-999,0,0.00
2013-10-26,80,69,63,70,65,63,100,88,62,0.00,40.00,0,-999,0,0.01
2013-10-27,69,64,58,66,62,58,100,95,76,0.00,40.00,0,-999,0,0.02
2013-11-2,71,59,45,43,35,-100,85,49,24,0.00,40.00,0,-999,0,0.00
2013-11-3,72,58,38,44,27,-100,100,58,30,0.00,40.00,0,-999,0,0.00
2013-11-4,62,61,58,62,54,-100,100,97,84,0.00,40.00,0,-999,0,0.15
2013-11-5,75,68,63,73,68,63,100,99,91,0.00,40.00,0,-999,0,0.01
2013-11-6,67,58,47,67,53,40,100,86,52,0.00,40.00,0,-999,0,0.21
2013-11-7,64,51,39,47,36,-100,98,68,31,0.00,40.00,0,-999,0,0.01
2013-11-8,64,54,46,48,34,-100,100,71,38,0.00,40.00,0,-999,0,0.00
2013-11-14,64,48,29,43,24,-100,100,68,29,0.00,40.00,0,-999,0,0.00
2013-11-15,58,52,48,58,50,43,100,93,67,0.00,40.00,0,-999,0,0.00
2013-11-16,76,69,59,70,66,59,100,89,70,0.00,40.00,0,-999,0,0.00
2013-11-17,87,71,54,73,59,44,100,74,22,0.00,40.00,0,-999,0,0.00
2013-11-18,74,63,51,53,41,-100,100,58,43,0.00,40.00,0,-999,0,0.00
2013-11-19,74,61,48,51,41,-100,99,58,32,0.00,40.00,0,-999,0,0.00
2013-11-20,72,64,57,66,59,51,100,86,72,0.00,40.00,0,-999,0,0.00
2013-11-24,38,36,33,37,32,28,100,87,71,0.00,40.00,0,-999,0,0.05
2013-11-25,39,37,34,39,37,34,100,99,95,0.00,40.00,0,-999,0,0.47
2013-11-26,51,41,34,37,32,24,100,73,41,0.00,40.00,0,-999,0,0.01
2013-11-27,50,39,28,29,23,17,86,57,28,0.00,40.00,0,-999,0,0.00
2013-11-28,56,40,28,32,20,-100,100,71,29,0.00,40.00,0,-999,0,0.00
2013-11-29,60,43,28,52,40,28,100,90,60,0.00,40.00,0,-999,0,0.00
2013-11-30,64,55,47,59,53,47,100,91,72,0.00,40.00,0,-999,0,0.00
2013-12-1,70,60,53,61,57,53,100,92,65,0.00,40.00,0,-999,0,0.00
2013-12-5,59,40,28,59,34,22,100,80,58,0.00,40.00,0,-999,0,0.00
2013-12-6,31,28,25,31,27,22,100,96,86,0.00,40.00,0,-999,0,0.00
2013-12-7,26,24,22,23,20,16,89,83,78,0.00,40.00,0,-999,0,0.00
2013-12-8,46,32,25,40,31,23,100,96,77,0.00,40.00,0,-999,0,0.04
2013-12-9,37,32,27,37,32,27,100,100,99,0.00,40.00,0,-999,0,0.02
2013-12-10,46,32,22,30,23,18,100,75,34,0.00,40.00,0,-999,0,0.01
2013-12-11,54,35,23,29,26,23,100,77,37,0.00,40.00,0,-999,0,0.00
2013-12-12,52,46,41,35,33,32,80,63,48,0.00,40.00,0,-999,0,0.00
2013-12-13,44,43,41,43,26,-100,100,82,70,0.00,40.00,0,-999,0,0.07
2013-12-14,50,42,35,41,35,28,100,77,50,0.00,40.00,0,-999,0,0.01
2013-12-15,61,41,26,32,26,-100,100,70,28,0.00,40.00,0,-999,0,0.00
2013-12-16,69,45,25,37,22,-100,100,70,27,0.00,40.00,0,-999,0,0.00
2013-12-30,47,36,28,31,24,20,95,66,37,0.00,40.00,0,-999,0,0.00
2013-12-31,58,41,29,36,28,-100,100,71,33,0.00,40.00,0,-999,0,0.00
2014-1-1,71,49,34,52,38,-100,100,76,47,0.00,40.00,0,-999,0,0.00
2014-1-2,49,38,28,36,25,22,91,62,36,0.00,40.00,0,-999,0,0.00